GW2011 Weather Reports


Display with metric or nautical units.
time (UTC)temp
F
wind
direction
speed
MPH
gust
MPH
rain 1hr
in
rain 24hr
in
rain mn
in
humidity
%
barometer
mb
20260506125515 35 0 0.0 3.0 0.00 0.00 0.00 68 1013.0
20260506125013 35 318 0.0 3.0 0.00 0.00 0.00 68 1012.8
20260506124531 35 302 0.0 3.0 0.00 0.00 0.00 67 1013.0
20260506124017 35 302 1.0 3.0 0.00 0.00 0.00 68 1012.8
20260506123517 35 303 0.0 2.0 0.00 0.00 0.00 68 1012.9
20260506123030 35 303 0.0 2.0 0.00 0.00 0.00 68 1012.8
20260506122515 34 0 0.0 2.0 0.00 0.00 0.00 68 1012.7
20260506122021 34 303 0.0 2.0 0.00 0.00 0.00 68 1012.7
20260506121534 34 303 0.0 2.0 0.00 0.00 0.00 69 1012.4
20260506121015 34 303 0.0 2.0 0.00 0.00 0.00 68 1012.5
20260506120517 34 303 0.0 2.0 0.00 0.00 0.00 68 1012.3
20260506120034 34 0 0.0 2.0 0.00 0.00 0.00 68 1012.4
20260506115516 34 303 0.0 2.0 0.00 0.00 0.00 69 1012.3
20260506115016 34 0 0.0 2.0 0.00 0.00 0.00 69 1012.2
20260506114533 34 303 0.0 2.0 0.00 0.00 0.00 70 1012.2
20260506114012 34 0 0.0 2.0 0.00 0.00 0.00 70 1012.0
20260506113513 34 0 0.0 2.0 0.00 0.00 0.00 70 1012.1
20260506113032 34 0 0.0 2.0 0.00 0.00 0.00 70 1012.1
20260506112514 34 303 0.0 2.0 0.00 0.00 0.00 70 1012.1
20260506112015 34 303 0.0 1.0 0.00 0.00 0.00 69 1012.0
20260506111531 34 0 0.0 1.0 0.00 0.00 0.00 69 1011.9
20260506111012 34 0 0.0 2.0 0.00 0.00 0.00 69 1011.9
20260506110512 34 303 0.0 2.0 0.00 0.00 0.00 68 1012.0
20260506110030 34 303 0.0 1.0 0.00 0.00 0.00 69 1012.0
20260506105515 34 0 0.0 1.0 0.00 0.00 0.00 68 1012.0
20260506105019 34 0 0.0 1.0 0.00 0.00 0.00 68 1011.9
20260506104533 34 0 0.0 1.0 0.00 0.00 0.00 68 1011.9
20260506104016 34 0 0.0 2.0 0.00 0.00 0.00 68 1011.9
20260506103514 34 303 1.0 2.0 0.00 0.00 0.00 68 1011.9
20260506103032 34 303 1.0 2.0 0.00 0.00 0.00 68 1011.9
20260506102515 34 303 0.0 2.0 0.00 0.00 0.00 69 1011.8
20260506102013 33 303 0.0 1.0 0.00 0.00 0.00 68 1011.8
20260506101532 33 0 0.0 1.0 0.00 0.00 0.00 68 1011.9
20260506101014 33 0 0.0 1.0 0.00 0.00 0.00 69 1011.9
20260506100517 33 0 0.0 1.0 0.00 0.00 0.00 69 1011.8
20260506100031 33 0 0.0 1.0 0.00 0.00 0.00 70 1011.8
20260506095513 33 0 0.0 1.0 0.00 0.00 0.00 70 1011.6
20260506095014 33 0 0.0 1.0 0.00 0.00 0.00 70 1011.6
20260506094531 33 0 0.0 1.0 0.00 0.00 0.00 70 1011.6
20260506094016 33 0 0.0 1.0 0.00 0.00 0.00 71 1011.6
20260506093513 32 0 0.0 1.0 0.00 0.00 0.00 71 1011.5
20260506093038 32 0 0.0 1.0 0.00 0.00 0.00 71 1011.6
20260506092515 32 0 0.0 1.0 0.00 0.00 0.00 71 1011.5
20260506092016 32 303 0.0 1.0 0.00 0.00 0.00 71 1011.5
20260506091534 32 0 0.0 2.0 0.00 0.00 0.00 71 1011.5
20260506091014 32 0 0.0 2.0 0.00 0.00 0.00 71 1011.3
20260506090513 32 0 0.0 1.0 0.00 0.00 0.00 71 1011.4
20260506090032 32 0 0.0 1.0 0.00 0.00 0.00 71 1011.5
20260506085514 32 0 0.0 2.0 0.00 0.00 0.00 71 1011.4
20260506085014 32 0 0.0 2.0 0.00 0.00 0.00 71 1011.2
20260506084536 32 303 0.0 2.0 0.00 0.00 0.00 71 1011.2
20260506084015 32 303 0.0 2.0 0.00 0.00 0.00 71 1011.1
20260506083514 32 0 0.0 3.0 0.00 0.00 0.00 71 1011.2
20260506083037 32 303 0.0 3.0 0.00 0.00 0.00 71 1011.2
20260506082515 32 303 0.0 2.0 0.00 0.00 0.00 71 1011.3
20260506082013 32 303 0.0 2.0 0.00 0.00 0.00 71 1011.3
20260506081533 32 0 0.0 2.0 0.00 0.00 0.00 71 1011.1
20260506081015 32 0 0.0 2.0 0.00 0.00 0.00 71 1011.2
20260506080516 32 0 0.0 2.0 0.00 0.00 0.00 71 1011.2
20260506073515 32 0 0.0 2.0 0.00 0.00 0.00 70 1011.2
20260506073032 32 303 0.0 2.0 0.00 0.00 0.00 70 1011.1
20260506072517 32 303 0.0 2.0 0.00 0.00 0.00 70 1011.0
20260506072014 32 0 0.0 2.0 0.00 0.00 0.00 70 1011.0
20260506071531 31 0 0.0 2.0 0.00 0.00 0.00 70 1010.8
20260506071014 31 303 0.0 1.0 0.00 0.00 0.00 71 1010.9
20260506070512 32 0 0.0 1.0 0.00 0.00 0.00 71 1010.9
20260506062512 31 303 0.0 2.0 0.00 0.00 0.00 71 1011.0
20260506062015 31 303 0.0 2.0 0.00 0.00 0.00 71 1011.2
20260506061532 31 303 1.0 2.0 0.00 0.00 0.00 71 1011.3
20260506061015 31 303 0.0 1.0 0.00 0.00 0.00 70 1011.3
20260506060512 32 0 0.0 2.0 0.00 0.00 0.00 70 1011.3
20260506051015 33 303 0.0 2.0 0.00 0.00 0.00 68 1010.7
20260506050516 33 303 0.0 2.0 0.00 0.00 0.00 68 1010.7
20260506045015 33 303 0.0 2.0 0.00 0.00 0.00 67 1010.6
20260506044541 33 303 0.0 2.0 0.00 0.00 0.00 66 1010.7
20260506044015 33 303 0.0 2.0 0.00 0.00 0.00 65 1010.8
20260506043515 34 303 0.0 2.0 0.00 0.00 0.00 65 1010.7
20260506043032 34 303 1.0 2.0 0.00 0.00 0.00 65 1010.7
20260506042516 34 303 0.0 2.0 0.00 0.00 0.00 65 1010.7
20260506042014 34 303 0.0 2.0 0.00 0.00 0.00 64 1010.7
20260506041546 34 303 0.0 2.0 0.00 0.00 0.00 65 1010.5
20260506041015 34 303 0.0 2.0 0.00 0.00 0.00 64 1010.6
20260506040516 34 303 0.0 3.0 0.00 0.00 0.00 64 1010.5
20260506040039 35 303 1.0 3.0 0.00 0.00 0.00 64 1010.4
20260506035513 35 303 1.0 3.0 0.00 0.00 0.00 65 1010.6
20260506035013 35 338 1.0 3.0 0.00 0.00 0.00 65 1010.5
20260506034533 35 338 1.0 2.0 0.00 0.00 0.00 65 1010.3
20260506034011 36 0 0.0 2.0 0.00 0.00 0.00 63 1010.3
20260506033512 36 338 1.0 2.0 0.00 0.00 0.00 62 1010.3
20260506033032 36 338 1.0 2.0 0.00 0.00 0.00 62 1010.2
20260506032514 36 0 0.0 1.0 0.00 0.00 0.00 61 1010.2
20260506032015 36 0 0.0 1.0 0.00 0.00 0.00 60 1010.1
20260506031533 36 0 0.0 1.0 0.00 0.00 0.00 60 1010.0
20260506031014 36 0 0.0 2.0 0.00 0.00 0.00 59 1010.0
20260506030515 37 338 0.0 2.0 0.00 0.00 0.00 59 1010.1
20260506030031 37 338 0.0 1.0 0.00 0.00 0.00 59 1010.2
20260506025515 37 0 0.0 2.0 0.00 0.00 0.00 59 1010.2
20260506025015 37 0 0.0 2.0 0.00 0.00 0.00 58 1010.2
20260506024536 37 0 0.0 2.0 0.00 0.00 0.00 58 1010.3
20260506024019 37 0 0.0 2.0 0.00 0.00 0.00 58 1010.0
20260506023514 38 338 0.0 2.0 0.00 0.00 0.00 58 1010.0
20260506023031 38 0 0.0 1.0 0.00 0.00 0.00 57 1010.2
20260506022515 38 0 0.0 2.0 0.00 0.00 0.00 56 1010.0
20260506022028 38 0 0.0 2.0 0.00 0.00 0.00 56 1010.0
20260506021530 38 338 0.0 2.0 0.00 0.00 0.00 56 1010.1
20260506021018 39 338 0.0 1.0 0.00 0.00 0.00 55 1009.8
20260506020517 39 0 0.0 2.0 0.00 0.00 0.00 55 1009.8
20260506020034 39 0 0.0 2.0 0.00 0.00 0.00 55 1009.6
20260506015516 39 338 0.0 3.0 0.00 0.00 0.00 54 1009.7
20260506015015 39 0 0.0 3.0 0.00 0.00 0.00 53 1009.6
20260506014532 40 332 1.0 3.0 0.00 0.00 0.00 53 1009.5
20260506014014 40 309 1.0 3.0 0.00 0.00 0.00 53 1009.5
20260506013516 40 332 1.0 3.0 0.00 0.00 0.00 52 1009.4
20260506013037 40 331 1.0 3.0 0.00 0.00 0.00 52 1009.6
20260506012515 41 322 1.0 5.0 0.00 0.00 0.00 52 1009.5
20260506012015 41 311 1.0 5.0 0.00 0.00 0.00 51 1009.3
20260506011558 41 332 0.0 4.0 0.00 0.00 0.00 52 1009.4
20260506011017 41 0 1.0 4.0 0.00 0.00 0.00 51 1009.3
20260506010514 41 311 1.0 5.0 0.00 0.00 0.00 51 1009.2
20260506010031 42 315 1.0 5.0 0.00 0.00 0.00 50 1009.2
20260506005515 42 314 0.0 3.0 0.00 0.00 0.00 51 1009.3
20260506005018 42 316 1.0 4.0 0.00 0.00 0.00 50 1009.1
20260506004541 42 308 1.0 4.0 0.00 0.00 0.00 49 1009.0
20260506004017 43 298 1.0 4.0 0.00 0.00 0.00 49 1009.0
20260506003515 43 351 1.0 5.0 0.00 0.00 0.00 49 1009.1
20260506003034 43 283 2.0 5.0 0.00 0.00 0.00 48 1009.0
20260506002514 43 287 2.0 7.0 0.00 0.00 0.00 48 1008.9
20260506002017 44 294 1.0 7.0 0.00 0.00 0.00 49 1008.9
20260506001532 44 320 2.0 6.0 0.00 0.00 0.00 48 1008.8
20260506001015 44 292 2.0 8.0 0.00 0.00 0.00 48 1008.7
20260506000516 44 321 2.0 8.0 0.00 0.00 0.00 47 1008.8
20260506000032 44 299 3.0 8.0 0.00 0.00 0.00 46 1008.7
20260505235511 45 5 2.0 6.0 0.00 0.00 0.00 46 1008.6
20260505235015 45 347 2.0 8.0 0.00 0.00 0.00 46 1008.6
20260505234534 45 304 3.0 8.0 0.00 0.00 0.00 46 1008.6
20260505234017 45 313 3.0 8.0 0.00 0.00 0.00 44 1008.6
20260505233514 46 298 3.0 8.0 0.00 0.00 0.00 44 1008.3
20260505233034 46 284 1.0 8.0 0.00 0.00 0.00 46 1008.4
20260505232517 46 296 2.0 8.0 0.00 0.00 0.00 46 1008.3
20260505232013 46 298 3.0 8.0 0.00 0.00 0.00 44 1008.3
20260505231549 46 304 2.0 11.0 0.00 0.00 0.00 44 1008.1
20260505231014 46 306 2.0 11.0 0.00 0.00 0.00 46 1008.1
20260505230515 46 311 2.0 8.0 0.00 0.00 0.00 44 1008.2
20260505230034 47 327 3.0 7.0 0.00 0.00 0.00 44 1008.2
20260505225513 46 320 2.0 12.0 0.00 0.00 0.00 45 1008.1
20260505225013 46 303 3.0 12.0 0.00 0.00 0.00 44 1008.1
20260505224534 46 328 2.0 9.0 0.00 0.00 0.00 44 1008.1
20260505224013 47 288 2.0 9.0 0.00 0.00 0.00 44 1008.2
20260505223513 47 319 2.0 7.0 0.00 0.00 0.00 45 1008.1
20260505223035 46 308 1.0 9.0 0.00 0.00 0.00 44 1007.9
20260505222513 47 331 5.0 9.0 0.00 0.00 0.00 44 1008.0
20260505222018 46 293 1.0 7.0 0.00 0.00 0.00 45 1007.9
20260505221534 46 322 1.0 12.0 0.00 0.00 0.00 45 1008.0
20260505221014 47 31 6.0 12.0 0.00 0.00 0.00 44 1007.9
20260505220512 47 309 3.0 9.0 0.00 0.00 0.00 45 1008.0
20260505220048 47 302 3.0 9.0 0.00 0.00 0.00 44 1007.8
20260505215516 47 299 4.0 9.0 0.00 0.00 0.00 44 1007.7
20260505215011 47 301 3.0 10.0 0.00 0.00 0.00 45 1007.6
20260505214533 47 290 4.0 10.0 0.00 0.00 0.00 44 1007.8
20260505214013 47 290 3.0 9.0 0.00 0.00 0.00 44 1007.8
20260505213514 48 325 4.0 9.0 0.00 0.00 0.00 44 1007.8
20260505213038 47 298 2.0 7.0 0.00 0.00 0.00 46 1007.7
20260505212512 47 326 2.0 8.0 0.00 0.00 0.00 44 1007.6
20260505212014 47 310 3.0 8.0 0.00 0.00 0.00 45 1007.9
20260505211539 47 348 3.0 7.0 0.00 0.00 0.00 44 1007.5
20260505211015 47 272 3.0 8.0 0.00 0.00 0.00 45 1007.9
20260505210511 47 286 4.0 9.0 0.00 0.00 0.00 43 1007.9
20260505210039 47 275 4.0 9.0 0.00 0.00 0.00 44 1007.8
20260505205516 47 240 2.0 11.0 0.00 0.00 0.00 45 1007.8
20260505205014 47 344 5.0 11.0 0.00 0.00 0.00 43 1007.7
20260505204531 47 302 2.0 7.0 0.00 0.00 0.00 43 1007.8
20260505204011 47 288 2.0 7.0 0.00 0.00 0.00 43 1007.8
20260505203514 48 339 2.0 8.0 0.00 0.00 0.00 43 1007.8
20260505203033 48 295 3.0 8.0 0.00 0.00 0.00 43 1007.9
20260505202512 48 344 3.0 11.0 0.00 0.00 0.00 43 1007.6
20260505202014 48 306 5.0 11.0 0.00 0.00 0.00 42 1007.8
20260505201530 47 304 4.0 9.0 0.00 0.00 0.00 45 1007.8
20260505201014 47 294 2.0 9.0 0.00 0.00 0.00 44 1007.8
20260505200513 47 320 3.0 12.0 0.00 0.00 0.00 44 1007.6
20260505200030 47 327 8.0 12.0 0.00 0.00 0.00 45 1007.8
20260505195513 47 326 3.0 9.0 0.00 0.00 0.00 43 1007.8
20260505195012 47 295 3.0 7.0 0.00 0.00 0.00 44 1007.8
20260505194532 47 24 1.0 10.0 0.00 0.00 0.00 48 1007.8
20260505194020 47 271 3.0 12.0 0.00 0.00 0.00 46 1007.9
20260505193511 47 277 6.0 12.0 0.00 0.00 0.00 46 1007.8
20260505193040 47 307 4.0 8.0 0.00 0.00 0.00 44 1007.9
20260505192514 47 315 2.0 9.0 0.00 0.00 0.00 47 1007.8
20260505192015 46 293 2.0 9.0 0.00 0.00 0.00 46 1007.9
20260505191534 46 302 3.0 10.0 0.00 0.00 0.00 46 1008.0
20260505191013 46 284 5.0 10.0 0.00 0.00 0.00 46 1008.0
20260505190517 46 274 4.0 9.0 0.00 0.00 0.00 47 1008.0
20260505190032 46 327 3.0 8.0 0.00 0.00 0.00 47 1007.9
20260505185513 46 340 3.0 8.0 0.00 0.00 0.00 45 1007.9
20260505185017 46 9 3.0 8.0 0.00 0.00 0.00 45 1007.8
20260505184532 46 289 3.0 5.0 0.00 0.00 0.00 45 1007.8
20260505184013 46 352 2.0 8.0 0.00 0.00 0.00 46 1007.8
20260505183512 45 355 3.0 8.0 0.00 0.00 0.00 45 1007.9
20260505183043 45 289 3.0 10.0 0.00 0.00 0.00 45 1007.9
20260505182513 45 345 5.0 10.0 0.00 0.00 0.00 45 1008.0
20260505182015 45 315 5.0 9.0 0.00 0.00 0.00 47 1007.9
20260505181532 45 350 2.0 8.0 0.00 0.00 0.00 45 1007.9
20260505181018 45 341 3.0 8.0 0.00 0.00 0.00 45 1007.7
20260505180514 45 347 1.0 7.0 0.00 0.00 0.00 46 1007.9
20260505180033 45 295 3.0 7.0 0.00 0.00 0.00 45 1007.7
20260505175514 45 296 2.0 11.0 0.00 0.00 0.00 46 1007.9
20260505175011 45 265 5.0 11.0 0.00 0.00 0.00 46 1007.7
20260505174533 45 274 4.0 10.0 0.00 0.00 0.00 48 1007.8
20260505174014 45 343 1.0 9.0 0.00 0.00 0.00 47 1007.7
20260505173514 45 331 3.0 9.0 0.00 0.00 0.00 46 1007.9
20260505173032 45 293 2.0 7.0 0.00 0.00 0.00 46 1007.8
20260505172516 45 314 3.0 7.0 0.00 0.00 0.00 46 1007.7
20260505172014 46 246 2.0 4.0 0.00 0.00 0.00 46 1007.8
20260505171533 46 297 1.0 8.0 0.00 0.00 0.00 46 1007.5
20260505171018 45 269 3.0 8.0 0.00 0.00 0.00 47 1007.7
20260505170514 45 328 3.0 7.0 0.00 0.00 0.00 46 1007.8
20260505170032 45 291 3.0 8.0 0.00 0.00 0.00 46 1007.8
20260505165515 45 284 3.0 10.0 0.00 0.00 0.00 45 1007.8
20260505165014 45 298 5.0 10.0 0.00 0.00 0.00 45 1007.6
20260505164551 46 292 1.0 8.0 0.00 0.00 0.00 46 1007.4
20260505164016 46 323 3.0 8.0 0.00 0.00 0.00 46 1007.5
20260505163516 46 298 2.0 8.0 0.00 0.00 0.00 44 1007.5
20260505163036 46 287 3.0 9.0 0.00 0.00 0.00 46 1007.5
20260505162515 45 275 4.0 9.0 0.00 0.00 0.00 47 1007.6
20260505162014 45 294 1.0 9.0 0.00 0.00 0.00 47 1007.5
20260505161542 45 340 4.0 9.0 0.00 0.00 0.00 46 1007.7
20260505161016 46 302 2.0 8.0 0.00 0.00 0.00 47 1007.6
20260505160516 45 331 3.0 8.0 0.00 0.00 0.00 47 1007.6
20260505153032 45 324 3.0 8.0 0.00 0.00 0.00 51 1007.8
20260505152516 45 320 3.0 8.0 0.00 0.00 0.00 49 1007.5
20260505152015 45 306 1.0 6.0 0.00 0.00 0.00 52 1007.6
20260505151531 45 296 2.0 6.0 0.00 0.00 0.00 50 1007.7
20260505151015 45 31 0.0 9.0 0.00 0.00 0.00 52 1007.5
20260505150515 44 296 5.0 9.0 0.00 0.00 0.00 52 1007.7
20260505140518 42 281 3.0 7.0 0.00 0.00 0.00 54 1007.2